Weather in Sochivki

Belarus     52°14′00″N   25°26′42″E
temp.,
°C
wind,
m/s
gust,
m/s
humid.,
%
clouds,
%
prec.,
mm/h
press.,
hPa
HPBL,
m
21 april, wed
wed2100:00+7nnw1179100 0.1 101232
03:00+7s2289100 0.9 101154
06:00+6sw249078 0.1 101073
09:00+8w348115 0.3 1010355
12:00+13nw45555 0.6 10101411
15:00+15w4548100 1.4 10092130
18:00+13sw356284 0.1 1009192
21:00+9sw228487 1.0 101021
22 april, thu
thu2200:00+8wsw338835 0.2 101037
03:00+7wsw349020 0.2 101055
06:00+6sw489144 0.0 1010141
09:00+10sw597839 0.1 1011365
12:00+13wsw796115 0.4 10111402
15:00+10w7866100 0.8 10131126
18:00+9w6859100 0.0 10131256
21:00+6wsw4958100 0.0 1014303
23 april, fri
fri2300:00+3wsw397499 0.0 1015236
03:00+2wsw49830 0.0 1015216
06:00+1w49883 0.0 1016231
09:00+5w57694 0.0 1016665
12:00+7w675380 0.1 10161650
15:00+9w574495 0.4 10162083
18:00+7wnw475671 0.8 1016919
21:00+4wnw41079100 1.3 1017234
24 april, sat
sat2400:00+2wnw398687 0.1 1018251
03:00+1wnw4991100 0.1 1018297
06:000w5109175 0.0 1018452
09:00+2wnw7981100 0.0 1018860
12:00+4w7879100 0.3 10181051
15:00+6wnw7865100 1.2 10171473
18:00+6wnw6966100 0.9 10171342
21:00+2w410806 1.0 1017197
25 april, sun
sun2500:00+2wsw378763 0.0 1017158
03:000wnw489599 0.0 1016256
06:00−2wsw410915 0.0 1016270
09:00+1w71082100 0.0 1016900
12:00+3wnw81079100 0.3 10161094
15:00+5wnw686294 0.6 10161461
18:00+6nw6964100 0.9 10161386
21:00+2w3782100 1.1 1017144